This is the latest recevied weather packets stored in our database for station/object K7LER. If no packets are shown the sender has not sent any weather packets the latest 10 day(s).
| Time | Temp. | Humidity | Pressure | Rain* | Wind** | Luminosity | Snow |
|---|---|---|---|---|---|---|---|
| 1777849538 | 24.44° C | 43% | 1010.5 hPa | 0 mm | - | 668 W/m² | - |
| 1777849244 | 24.44° C | 43% | 1010.5 hPa | 0 mm | - | 677 W/m² | - |
| 1777848937 | 24.44° C | 42% | 1010.7 hPa | 0 mm | - | 689 W/m² | - |
| 1777848634 | 24.44° C | 40% | 1010.8 hPa | 0 mm | - | 700 W/m² | - |
| 1777848345 | 24.44° C | 41% | 1010.9 hPa | 0 mm | - | 710 W/m² | - |
| 1777848034 | 24.44° C | 40% | 1011 hPa | 0 mm | - | 721 W/m² | - |
| 1777847738 | 23.89° C | 42% | 1011 hPa | 0 mm | - | 731 W/m² | - |
| 1777847457 | 23.89° C | 42% | 1011.2 hPa | 0 mm | - | 740 W/m² | - |
| 1777847137 | 23.89° C | 43% | 1011.3 hPa | 0 mm | - | 747 W/m² | - |
| 1777846839 | 23.89° C | 43% | 1011.3 hPa | 0 mm | - | 758 W/m² | - |
| 1777846545 | 23.33° C | 43% | 1011.3 hPa | 0 mm | - | 766 W/m² | - |
| 1777846238 | 23.33° C | 44% | 1011.4 hPa | 0 mm | - | 775 W/m² | - |
| 1777845938 | 23.33° C | 45% | 1011.5 hPa | 0 mm | - | 784 W/m² | - |
| 1777845652 | 23.33° C | 46% | 1011.5 hPa | 0 mm | - | 791 W/m² | - |
| 1777845335 | 23.33° C | 45% | 1011.5 hPa | 0 mm | - | 798 W/m² | - |
| 1777845038 | 23.33° C | 44% | 1011.5 hPa | 0 mm | - | 803 W/m² | - |
| 1777844748 | 23.33° C | 44% | 1011.5 hPa | 0 mm | - | 810 W/m² | - |
| 1777844436 | 23.33° C | 41% | 1011.7 hPa | 0 mm | - | 817 W/m² | - |
| 1777844135 | 22.78° C | 41% | 1011.7 hPa | 0 mm | - | 823 W/m² | - |
| 1777843860 | 22.78° C | 42% | 1011.7 hPa | 0 mm | - | 826 W/m² | - |
| 1777843538 | 22.78° C | 44% | 1011.8 hPa | 0 mm | - | 831 W/m² | - |
| 1777843238 | 22.22° C | 44% | 1011.9 hPa | 0 mm | - | 835 W/m² | - |
| 1777842948 | 22.22° C | 45% | 1011.9 hPa | 0 mm | - | 842 W/m² | - |
| 1777842638 | 22.78° C | 43% | 1011.9 hPa | 0 mm | - | 847 W/m² | - |
| 1777842338 | 22.78° C | 44% | 1012 hPa | 0 mm | - | 851 W/m² | - |
* Rain latest hour (hover to see other rain measurements)
** Current wind speed in m/s (hover to see current wind gust speed)